Home   Weather   Bodø   Past weeks

Flag for Norway Past Weather in Bodø, Norway — Yesterday and Last 2 Weeks

Now
39 °F

Partly sunny.


Feels Like: 32 °F
Forecast: 37 / 40 °F
Wind: 12 mph from East

Location: Bodo Vi

Current Time: Apr 30, 2017 at 11:11:44 am

Latest Report: Apr 30, 2017 at 10:20 am


Visibility: N/A

Pressure: 30.15 "Hg

Humidity: 48%

Dew Point: 21 °F

Location of BodøLocation

Past Weather in Bodø — Graph

°F

Bodø Temperature Yesterday

Maximum temperature yesterday: 43 °F (at 12:20 pm)
Minimum temperature yesterday: 34 °F (at 3:50 am)
Average temperature yesterday: 40 °F

High & Low Weather Summary for the Past Weeks

 TemperatureHumidityPressure
High45 °F (Apr 28, 3:20 pm)100% (Apr 18, 9:20 pm)30.42 "Hg (Apr 18, 9:20 pm)
Low25 °F (Apr 16, 1:50 am)34% (Apr 28, 3:20 pm)28.91 "Hg (Apr 21, 7:50 am)
Average36 °F66%29.88 "Hg
* Reported Apr 15 9:20 am — Apr 30 9:20 am, Bodø, Weather by CustomWeather, © 2017

Note: Actual official high and low records may vary slightly from our data, if they occured in-between our weather recording intervals... More about our weather records

Advertising

Bodø Weather History for the Previous 24 Hours

Scroll right to see more
 ConditionsComfort  
Time TempWeatherWind HumidityBarometerVisibility
9:20 am
Sun, Apr 30
39 °FPartly sunny.12 mph52%30.18 "HgN/A
8:50 am37 °FSunny.10 mph56%30.21 "Hg10 mi
8:20 am37 °FSunny.10 mph56%30.21 "Hg10 mi
7:50 am37 °FSunny.12 mph56%30.21 "Hg10 mi
7:20 am37 °FSunny.9 mph56%30.24 "Hg10 mi
6:50 am36 °FSunny.9 mph60%30.24 "Hg10 mi
6:20 am36 °FSunny.13 mph60%30.27 "Hg10 mi
5:50 am36 °FSunny.12 mph56%30.24 "Hg10 mi
5:20 am36 °FSunny.14 mph60%30.27 "Hg10 mi
4:50 am36 °FSunny.13 mph56%30.27 "Hg10 mi
3:50 am34 °FClear.12 mph60%30.30 "Hg10 mi
2:50 am34 °FClear.8 mph65%30.30 "Hg10 mi
1:50 am36 °FPassing clouds.9 mph60%30.33 "HgN/A
12:50 am37 °FClear.15 mph56%30.33 "Hg10 mi
11:50 pm
Sat, Apr 29
37 °FPassing clouds.10 mph60%30.33 "HgN/A
11:20 pm37 °FClear.8 mph60%30.33 "Hg10 mi
10:20 pm39 °FClear.8 mph52%30.33 "Hg10 mi
9:20 pm39 °FSunny.8 mph52%30.36 "Hg10 mi
8:50 pm41 °FSunny.13 mph45%30.36 "Hg10 mi
8:20 pm41 °FSunny.12 mph42%30.36 "Hg10 mi
7:50 pm43 °FSunny.9 mph39%30.36 "Hg10 mi
7:20 pm43 °FSunny.14 mph39%30.36 "Hg10 mi
6:50 pm43 °FSunny.14 mph39%30.36 "Hg10 mi
6:20 pm43 °FSunny.15 mph36%30.36 "Hg10 mi
5:50 pm43 °FSunny.17 mph39%30.36 "Hg10 mi
5:20 pm43 °FSunny.15 mph39%30.36 "Hg10 mi
4:50 pm43 °FSunny.18 mph39%30.36 "Hg10 mi
4:20 pm43 °FSunny.18 mph39%30.39 "Hg10 mi
3:50 pm43 °FPassing clouds.22 mph36%30.39 "HgN/A
3:20 pm43 °FPassing clouds.24 mph39%30.39 "HgN/A
2:20 pm41 °FPassing clouds.20 mph42%30.39 "HgN/A
1:50 pm41 °FPassing clouds.22 mph45%30.39 "HgN/A
1:20 pm41 °FPassing clouds.22 mph45%30.39 "HgN/A
12:50 pm43 °FPassing clouds.14 mph42%30.39 "HgN/A
12:20 pm43 °FPassing clouds.16 mph39%30.39 "HgN/A
11:50 am41 °FSunny.17 mph39%30.39 "Hg10 mi
11:20 am41 °FSunny.22 mph45%30.42 "Hg10 mi
Weather by CustomWeather, © 2017

See weather overviewHow to use our weather pages